[[{"header":{"parameterUnit":"m.s-1","parameterCategory":1,"la1":30.2991,"la2":30.254,"lo1":-89.0895,"lo2":-89.0444,"dy":0.0017,"dx":0.0017,"nx":28,"ny":28,"refTime":"2024-11-28T09:00:00:Z","depth":0,"parameterNumber":2,"parameterNumberName":"U-component_of_WINDS"},"data":[0,0,0,0,0,0,0,0,0,0,0,0,0,0,0,0,0,0,0,0,0,0,0,0,0,0,0,0,0,0,0,0,0,0,0,0,0,0,0,0,0,0,0,0,0,0,0,0,0,0,0,0,0,0,0,0,0,0,-3.4715,-3.4715,0,-3.4738,-3.4738,-3.4738,-3.459,-3.4586,-3.4582,-3.4578,-3.4603,-3.4608,-3.4612,0,0,0,0,0,0,0,0,0,0,0,0,0,-3.4544,-3.4548,-3.4715,-3.4715,-3.4715,-3.4737,-3.4738,-3.4738,-3.4591,-3.4586,-3.4581,-3.4576,-3.4602,-3.4607,-3.4613,0,0,0,0,0,0,0,0,0,0,0,0,0,-3.4598,-3.455,-3.4715,-3.4645,-3.4638,-3.4737,-3.4738,-3.4738,-3.4592,-3.4586,-3.4579,-3.4574,-3.46,-3.4607,-3.4613,-3.4781,0,0,-3.4634,-3.4637,0,0,0,0,0,0,0,0,-3.4595,-3.4605,-3.4655,-3.465,-3.4643,-3.4655,-3.4687,-3.4753,-3.4594,-3.461,-3.4578,-3.4571,-3.4626,-3.463,-3.4648,-3.4783,-3.4784,-3.4635,-3.4639,-3.4642,-3.4644,0,0,0,0,0,0,0,-3.4592,-3.4603,-3.4724,-3.4656,-3.4648,-3.4612,-3.4613,-3.4699,-3.4653,-3.4608,-3.4597,-3.4602,-3.4621,-3.4642,-3.4647,-3.4784,-3.4635,-3.4641,-3.4645,-3.4648,-3.5056,-3.5063,0,0,0,0,0,0,-3.4597,-3.4601,-3.4723,-3.4724,-3.4603,-3.462,-3.4621,-3.4657,-3.4651,-3.4644,-3.4607,-3.4595,-3.4633,-3.464,-3.4648,-3.4844,-3.4642,-3.4648,-3.4652,-3.505,-3.5058,-3.5065,0,0,0,0,0,0,-3.4594,-3.461,-3.4722,-3.466,-3.4671,-3.463,-3.4672,-3.4661,-3.4681,-3.4651,-3.4642,-3.4637,-3.4628,-3.4638,-3.4749,-3.4843,-3.4652,-3.4658,-3.5042,-3.5052,-3.5061,-3.5238,0,0,0,0,0,0,-3.459,-3.4609,-3.4673,-3.4662,-3.4675,-3.4824,-3.4677,-3.4666,-3.4693,-3.4678,-3.4676,-3.467,-3.4624,-3.4739,-3.4756,-3.4849,-3.4663,-3.5033,-3.5046,-3.5058,-3.5224,-3.5253,-3.5278,0,0,0,0,0,-3.4584,-3.4722,-3.4677,-3.4693,-3.4754,-3.4829,-3.4837,-3.4781,-3.4702,-3.4765,-3.4745,-3.467,-3.4829,-3.4752,-3.4769,-3.4866,-3.5027,-3.5043,-3.5057,-3.5212,-3.5247,-3.5277,0,0,0,0,0,0,-3.4747,-3.472,-3.4669,-3.4808,-3.4822,-3.4804,-3.4883,-3.482,-3.4858,-3.4842,-3.4771,-3.4772,-3.4895,-3.489,-3.4805,-3.5027,-3.4914,-3.4934,-3.5026,-3.506,-3.5086,-3.5085,-3.4669,0,0,0,0,0,-3.4798,-3.4862,-3.4835,-3.496,-3.4969,-3.4925,-3.4956,-3.4911,-3.4923,-3.4929,-3.4917,-3.4932,-3.4984,-3.5021,-3.5069,-3.5221,-3.5219,-3.5296,-3.5323,-3.5346,-3.5364,-3.5444,-3.5478,-3.5115,-3.5115,-3.5114,0,0,-3.4906,-3.4899,-3.4944,-3.4992,-3.4998,-3.5065,-3.4931,-3.5008,-3.5057,-3.494,-3.5044,-3.5036,-3.5048,-3.518,-3.5238,-3.5181,-3.5463,-3.5365,-3.5383,-3.5389,-3.5463,-3.5498,-3.5528,-3.5125,-3.5123,-3.5122,0,0,-3.5138,-3.5139,-3.5243,-3.525,-3.526,-3.5229,-3.5255,-3.5246,-3.5236,-3.5338,-3.5252,-3.5309,-3.5402,-3.5414,-3.5432,-3.5666,-3.5599,-3.5683,-3.5826,-3.5905,-3.5934,-3.5959,-3.6043,-3.6073,-3.5701,-3.5702,-3.5702,0,-3.5271,-3.5369,-3.5304,-3.5387,-3.5411,-3.5306,-3.5411,-3.5422,-3.5447,-3.5466,-3.5401,-3.5515,-3.5515,-3.5649,-3.5706,-3.5724,-3.575,-3.5684,-3.5935,-3.5959,-3.5981,-3.6061,-3.6092,-3.5712,-3.5711,-3.571,-3.5709,0,-3.5532,-3.5601,-3.5684,-3.571,-3.5742,-3.5836,-3.5786,-3.5826,-3.5778,-3.5755,-3.586,-3.5857,-3.5901,-3.5929,-3.5884,-3.6057,-3.6021,-3.5947,-3.5832,-3.6028,-3.6101,-3.6131,-3.5727,-3.5723,-3.572,-3.5717,0,0,-3.5869,-3.5856,-3.5888,-3.5898,-3.59,-3.5952,-3.604,-3.6083,-3.6119,-3.6139,-3.6212,-3.6292,-3.6223,-3.6244,-3.6198,-3.6267,-3.6453,-3.6184,-3.6183,-3.6235,-3.6643,-3.6701,-3.6737,-3.6407,-3.6413,-3.6417,-3.6643,0,-3.6096,-3.6246,-3.6189,-3.6343,-3.6406,-3.6307,-3.6383,-3.6393,-3.6373,-3.6423,-3.64,-3.6458,-3.6362,-3.6374,-3.6438,-3.6417,-3.6534,-3.64,-3.6475,-3.6478,-3.6477,-3.6775,-3.6836,-3.7049,-3.6671,-3.6676,-3.6679,0,-3.6381,-3.6412,-3.6572,-3.6562,-3.6586,-3.6656,-3.669,-3.6739,-3.6747,-3.6727,-3.675,-3.6689,-3.6774,-3.6659,-3.6776,-3.6686,-3.6712,-3.6707,-3.6713,-3.672,-3.6592,-3.679,-3.7116,-3.7148,-3.6723,-3.672,-3.6717,0,-3.6612,-3.6693,-3.6799,-3.681,-3.6801,-3.6853,-3.6851,-3.6853,-3.6882,-3.6911,-3.6929,-3.6969,-3.6991,-3.7023,-3.6974,-3.6894,-3.7098,-3.6978,-3.7085,-3.7086,-3.7134,-3.7132,-3.747,-3.7149,-3.7149,-3.7148,-3.7148,0,-3.6871,-3.6974,-3.6902,-3.6968,-3.7079,-3.7013,-3.7125,-3.7112,-3.7115,-3.7176,-3.7092,-3.7151,-3.7082,-3.7135,-3.7097,-3.72,-3.721,-3.7197,-3.7186,-3.7206,-3.7208,-3.7224,-3.7208,-3.7157,-3.7155,-3.7153,-3.7152,0,-3.7149,-3.7105,-3.7214,-3.7196,-3.7193,-3.7276,-3.726,-3.732,-3.7293,-3.7372,-3.7386,-3.7344,-3.7402,-3.7355,-3.7412,-3.7386,-3.7522,-3.749,-3.752,-3.7511,-3.7621,-3.7612,-3.7982,-3.8027,-3.7677,-3.7681,-3.7683,0,-3.7319,-3.7395,-3.7384,-3.7418,-3.7422,-3.7479,-3.7507,-3.7444,-3.7477,-3.7492,-3.755,-3.76,-3.7637,-3.7734,-3.7709,-3.7751,-3.7719,-3.7846,-3.7726,-3.7743,-3.7722,-3.7719,-3.7726,-3.7871,-3.7876,-3.7879,-3.7882,0,-3.7625,-3.7598,-3.7642,-3.7679,-3.7715,-3.7741,-3.776,-3.7793,-3.7728,-3.777,-3.7827,-3.7856,-3.7913,-3.7964,-3.7998,-3.7996,-3.7929,-3.7919,-3.7946,-3.7968,-3.7983,-3.7977,-3.7588,-3.7912,-3.7909,-3.7907,-3.7905,-3.7904,-3.7854,-3.7916,-3.7918,-3.797,-3.7977,-3.7997,-3.8052,-3.803,-3.8077,-3.8118,-3.8077,-3.8147,-3.8152,-3.819,-3.8196,-3.825,-3.8197,-3.8236,-3.8247,-3.8258,-3.8274,-3.7973,-3.8256,-3.8255,-3.8254,-3.8253,-3.8252,0,-3.8156,-3.8151,-3.8199,-3.8228,-3.8269,-3.82,-3.8217,-3.8256,-3.8318,-3.8328,-3.8365,-3.8431,-3.848,-3.8457,-3.85,-3.8547,-3.8517,-3.856,-3.8557,-3.8558,-3.8318,-3.8291,-3.8583,-3.8583,-3.8583,-3.8583,-3.8583,-3.8583,-3.8318,-3.842,-3.8394,-3.8499,-3.8494,-3.8561,-3.8577,-3.8594,-3.8601,-3.8678,-3.8718,-3.8702,-3.8699,-3.874,-3.8782,-3.8774,-3.8794,-3.8849,-3.883,-3.8607,-3.8574,-3.8543,-3.8517,-3.8853,-3.8854,-3.9065,-3.9067,-3.9069]},{"header":{"parameterUnit":"m.s-1","parameterCategory":1,"la1":30.2991,"la2":30.254,"lo1":-89.0895,"lo2":-89.0444,"dy":0.0017,"dx":0.0017,"nx":28,"ny":28,"refTime":"2024-11-28T09:00:00:Z","depth":0,"parameterNumber":3,"parameterNumberName":"V-component_of_WINDS"},"data":[0,0,0,0,0,0,0,0,0,0,0,0,0,0,0,0,0,0,0,0,0,0,0,0,0,0,0,0,0,0,0,0,0,0,0,0,0,0,0,0,0,0,0,0,0,0,0,0,0,0,0,0,0,0,0,0,0,0,-6.1985,-6.1986,0,-6.2078,-6.2079,-6.208,-6.1986,-6.1983,-6.1979,-6.1976,-6.2066,-6.2071,-6.2077,0,0,0,0,0,0,0,0,0,0,0,0,0,-6.172,-6.1726,-6.1985,-6.1986,-6.1987,-6.2077,-6.2079,-6.208,-6.1987,-6.1983,-6.1978,-6.1974,-6.2064,-6.207,-6.2077,0,0,0,0,0,0,0,0,0,0,0,0,0,-6.1826,-6.1728,-6.1985,-6.1952,-6.195,-6.2077,-6.2079,-6.208,-6.1988,-6.1982,-6.1977,-6.1972,-6.2061,-6.207,-6.2078,-6.2241,0,0,-6.2105,-6.2109,0,0,0,0,0,0,0,0,-6.182,-6.1836,-6.1955,-6.1954,-6.1952,-6.2015,-6.2018,-6.2134,-6.1989,-6.1973,-6.1975,-6.1969,-6.2053,-6.2062,-6.2091,-6.2246,-6.2249,-6.2106,-6.2111,-6.2115,-6.2117,0,0,0,0,0,0,0,-6.1813,-6.1832,-6.2021,-6.1957,-6.1955,-6.193,-6.1939,-6.204,-6.2042,-6.1974,-6.1968,-6.198,-6.2051,-6.2083,-6.2092,-6.2251,-6.2105,-6.2113,-6.2119,-6.2122,-6.254,-6.2546,0,0,0,0,0,0,-6.181,-6.1826,-6.2018,-6.2024,-6.1872,-6.1939,-6.1949,-6.2,-6.2041,-6.2042,-6.1985,-6.1976,-6.2071,-6.2082,-6.2095,-6.2287,-6.2115,-6.2123,-6.2128,-6.2534,-6.2541,-6.2548,0,0,0,0,0,0,-6.1805,-6.1828,-6.2014,-6.1923,-6.1945,-6.195,-6.2007,-6.2005,-6.2037,-6.2049,-6.2048,-6.2018,-6.2067,-6.2083,-6.2205,-6.2289,-6.2127,-6.2135,-6.2527,-6.2536,-6.2545,-6.2673,0,0,0,0,0,0,-6.1798,-6.1827,-6.1891,-6.1926,-6.195,-6.2126,-6.2013,-6.2011,-6.2053,-6.2042,-6.208,-6.2081,-6.2064,-6.2193,-6.2214,-6.2298,-6.2141,-6.252,-6.2531,-6.2542,-6.2661,-6.2685,-6.2705,0,0,0,0,0,-6.1789,-6.1923,-6.1895,-6.1918,-6.2031,-6.2131,-6.2145,-6.2124,-6.206,-6.2123,-6.213,-6.2079,-6.2276,-6.2206,-6.2229,-6.2317,-6.2514,-6.2528,-6.2541,-6.2651,-6.268,-6.2704,0,0,0,0,0,0,-6.1896,-6.1927,-6.1896,-6.2045,-6.2086,-6.2115,-6.2193,-6.2156,-6.2214,-6.2201,-6.2171,-6.2181,-6.231,-6.2325,-6.2247,-6.2475,-6.2385,-6.2403,-6.246,-6.2488,-6.251,-6.2503,-6.2149,0,0,0,0,0,-6.1937,-6.2018,-6.204,-6.2169,-6.2191,-6.2189,-6.2232,-6.2213,-6.2253,-6.2269,-6.2286,-6.2325,-6.2396,-6.2443,-6.2508,-6.2663,-6.2668,-6.2734,-6.2756,-6.2774,-6.279,-6.287,-6.2899,-6.2591,-6.2591,-6.2591,0,0,-6.2023,-6.205,-6.2102,-6.2191,-6.2221,-6.2303,-6.2204,-6.2296,-6.2355,-6.2283,-6.2399,-6.2413,-6.2454,-6.2593,-6.2655,-6.261,-6.2876,-6.2791,-6.2805,-6.2811,-6.2887,-6.2916,-6.2942,-6.26,-6.2599,-6.2597,0,0,-6.2221,-6.225,-6.236,-6.2392,-6.2438,-6.2435,-6.2462,-6.2496,-6.2503,-6.2619,-6.2566,-6.2635,-6.2758,-6.2789,-6.2822,-6.3029,-6.2984,-6.3052,-6.3166,-6.3245,-6.3269,-6.329,-6.3363,-6.3389,-6.3068,-6.3068,-6.3068,0,-6.2321,-6.2444,-6.2421,-6.2517,-6.2556,-6.2495,-6.2605,-6.2636,-6.2701,-6.2728,-6.2678,-6.2829,-6.2853,-6.2997,-6.3048,-6.3076,-6.3103,-6.3047,-6.3268,-6.3289,-6.3308,-6.3377,-6.3404,-6.3076,-6.3075,-6.3074,-6.3073,0,-6.2564,-6.265,-6.2733,-6.2799,-6.2847,-6.295,-6.294,-6.2992,-6.2968,-6.297,-6.3087,-6.3114,-6.3183,-6.3216,-6.3193,-6.3356,-6.3327,-6.3273,-6.3181,-6.3346,-6.3409,-6.3436,-6.3087,-6.3084,-6.3082,-6.308,0,0,-6.2832,-6.2883,-6.2914,-6.2942,-6.2987,-6.3052,-6.315,-6.3219,-6.3263,-6.3309,-6.3389,-6.3494,-6.3443,-6.348,-6.3459,-6.3529,-6.3689,-6.3465,-6.3466,-6.3505,-6.3867,-6.3907,-6.3938,-6.366,-6.3665,-6.3668,-6.3863,0,-6.303,-6.3202,-6.3184,-6.3347,-6.3424,-6.3367,-6.3451,-6.3487,-6.3492,-6.3556,-6.3559,-6.3634,-6.3563,-6.3584,-6.365,-6.3656,-6.3761,-6.3641,-6.3731,-6.3735,-6.3721,-6.3972,-6.4014,-6.4197,-6.3888,-6.3892,-6.3896,0,-6.3284,-6.334,-6.3512,-6.3544,-6.3575,-6.3652,-6.3713,-6.3776,-6.3814,-6.3812,-6.3853,-6.382,-6.3915,-6.3823,-6.3952,-6.3871,-6.3907,-6.3915,-6.3921,-6.3928,-6.3824,-6.3983,-6.4255,-6.4282,-6.3935,-6.3932,-6.3929,0,-6.346,-6.3579,-6.3696,-6.3722,-6.3763,-6.3817,-6.3837,-6.387,-6.3912,-6.3964,-6.399,-6.4052,-6.4086,-6.4134,-6.4117,-6.4052,-6.425,-6.4156,-6.4248,-6.4249,-6.4292,-6.4289,-6.4572,-6.4318,-6.4317,-6.4317,-6.4316,0,-6.3682,-6.3789,-6.3775,-6.3848,-6.3964,-6.394,-6.4056,-6.4067,-6.4097,-6.4168,-6.4122,-6.4189,-6.4165,-6.423,-6.4217,-6.4325,-6.4341,-6.434,-6.4336,-6.4344,-6.4344,-6.4366,-6.4352,-6.4324,-6.4322,-6.4321,-6.432,0,-6.3899,-6.3895,-6.4018,-6.4047,-6.4056,-6.4141,-6.4163,-6.423,-6.423,-6.432,-6.434,-6.434,-6.4414,-6.4403,-6.4485,-6.4476,-6.4611,-6.4591,-6.4598,-6.4593,-6.4686,-6.4676,-6.4991,-6.503,-6.4752,-6.4755,-6.4757,0,-6.404,-6.4121,-6.4158,-6.4203,-6.4227,-6.43,-6.4342,-6.4321,-6.4367,-6.4416,-6.4476,-6.4546,-6.4601,-6.4722,-6.4728,-6.479,-6.477,-6.4876,-6.4779,-6.4784,-6.4769,-6.4764,-6.4771,-6.4895,-6.4898,-6.49,-6.4902,0,-6.4291,-6.4284,-6.4349,-6.4412,-6.4464,-6.4513,-6.4556,-6.4595,-6.4578,-6.4631,-6.4707,-6.475,-6.4834,-6.4903,-6.4961,-6.4978,-6.4937,-6.4933,-6.4957,-6.4966,-6.4966,-6.4965,-6.4649,-6.4926,-6.4923,-6.4922,-6.492,-6.4919,-6.4473,-6.4541,-6.4578,-6.465,-6.468,-6.4722,-6.4785,-6.4793,-6.4857,-6.4924,-6.4907,-6.4993,-6.5026,-6.51,-6.5123,-6.5188,-6.5149,-6.5185,-6.5193,-6.5202,-6.5212,-6.4957,-6.5199,-6.5198,-6.5197,-6.5197,-6.5196,0,-6.4719,-6.474,-6.4807,-6.4869,-6.4926,-6.4884,-6.4929,-6.4978,-6.5055,-6.509,-6.5146,-6.5232,-6.5298,-6.5309,-6.5372,-6.5421,-6.5404,-6.5438,-6.5434,-6.5438,-6.5245,-6.5217,-6.5451,-6.5451,-6.5451,-6.5451,-6.5451,-6.5451,-6.4854,-6.4967,-6.4965,-6.5091,-6.511,-6.5194,-6.5223,-6.526,-6.5288,-6.5387,-6.5443,-6.545,-6.5475,-6.5539,-6.5597,-6.5598,-6.5623,-6.5664,-6.5658,-6.5477,-6.5452,-6.5427,-6.5401,-6.567,-6.5671,-6.5845,-6.5847,-6.5848]}]]